Theta_e
304 304 304 304 304 305 305 305 305 305 305 306 306 306 307 307 306 306 306 305 305 305 305 305 305 305 305 305 306 306 307 309 310 311 314 318 320 321 321 321 322 322 322 322 322 322 322 322 321 321 320 319 318 317 317 317 318 317 318 318 319 320 322 323 324 324 325 326 327 328 327 328 328 328
305 306 306 306 306 307 308 308 307 306 307 308 308 308 308 308 308 307 307 307 306 306 306 305 305 305 304 304 304 304 304 305 306 307 308 311 314 316 317 318 319 319 320 320 320 320 320 320 320 320 319 318 316 315 315 316 316 316 316 316 316 317 318 320 321 322 323 324 325 325 326 328 327 327
307 307 307 307 307 308 309 309 309 308 308 308 309 309 309 308 308 307 307 307 307 306 306 306 305 305 304 304 304 304 303 304 304 305 305 305 306 307 308 310 311 312 313 314 314 315 315 316 317 317 317 317 316 315 315 316 317 316 316 316 316 317 317 317 318 319 320 321 322 322 323 325 325 325
307 307 308 307 307 308 308 309 309 310 310 310 310 309 309 309 308 307 307 308 307 307 306 306 305 305 304 303 304 304 303 303 303 304 304 304 304 304 305 305 306 306 307 308 309 309 309 310 312 313 314 315 316 316 316 316 316 315 315 316 317 317 317 316 315 315 316 317 318 319 319 320 321 322
308 308 308 308 307 307 308 308 309 310 311 311 310 310 310 309 308 308 307 308 309 308 307 306 306 305 305 304 304 304 304 303 304 303 304 304 304 305 305 305 306 306 307 307 307 308 308 308 309 309 310 311 312 313 313 314 313 313 314 315 316 316 315 315 314 315 314 314 313 314 315 316 317 317
308 308 307 308 307 307 307 308 308 309 310 311 310 310 310 309 309 308 308 308 309 310 309 307 306 306 306 305 304 305 304 304 303 303 303 303 304 305 306 306 306 307 307 308 308 308 309 309 309 309 309 310 310 310 310 311 310 311 312 313 313 313 313 313 313 315 315 314 313 312 311 312 314 315
311 310 310 309 308 307 307 307 308 308 308 310 310 310 309 309 309 309 310 309 309 309 309 308 306 306 305 304 304 304 303 303 302 302 302 302 303 304 305 306 306 307 307 307 308 308 309 309 309 309 309 309 310 310 310 310 310 310 310 311 312 312 312 312 313 314 316 316 315 314 311 310 310 312
315 315 314 313 312 309 308 307 308 308 308 309 309 309 309 309 310 310 311 311 309 309 309 307 306 305 304 302 302 302 302 302 302 302 302 302 302 302 303 304 305 306 306 307 307 307 308 308 308 308 308 308 308 310 311 311 311 311 311 311 311 311 312 312 313 315 315 315 315 314 312 310 309 309
317 317 317 316 315 314 311 309 308 309 308 308 309 309 310 310 311 311 311 311 310 309 308 307 305 304 302 301 301 301 301 302 302 302 302 301 301 301 301 302 303 304 304 305 305 306 306 306 307 307 306 306 307 308 309 310 311 311 311 312 312 313 313 313 314 315 314 314 314 314 313 311 309 308
317 317 317 317 316 316 314 311 310 310 310 309 309 309 310 310 311 311 311 311 310 309 308 306 304 303 302 301 301 300 300 300 301 302 302 301 301 301 301 301 301 301 301 301 302 302 303 303 303 303 303 303 306 308 308 309 310 310 311 312 312 313 313 313 314 315 315 315 314 315 314 312 309 308
317 317 317 317 316 316 316 314 313 312 311 310 309 309 309 310 310 310 310 310 310 309 307 305 302 301 300 300 300 299 299 298 299 300 301 301 302 301 301 300 300 300 300 300 300 300 301 301 301 301 301 303 305 308 309 308 309 310 310 311 311 311 312 312 313 315 315 316 315 316 316 314 312 310
317 317 317 317 317 316 316 315 314 313 313 312 310 309 309 309 309 310 310 310 309 308 306 304 302 301 300 300 299 299 299 300 300 299 299 299 300 300 300 299 299 299 299 300 300 300 300 300 300 300 302 302 304 307 308 308 308 308 309 311 312 312 312 312 312 313 315 315 316 316 316 316 314 312
316 317 317 317 316 316 316 315 314 313 313 312 311 310 310 309 309 310 310 309 308 306 305 303 302 301 301 300 300 300 300 299 299 298 297 297 298 299 300 299 298 298 299 299 299 299 299 300 300 299 300 301 302 304 306 307 308 308 308 310 311 312 313 314 313 314 314 315 315 316 316 316 316 314
316 317 317 317 317 316 315 314 314 313 312 311 310 310 310 310 310 310 310 309 308 306 304 303 302 302 301 301 300 299 299 298 297 297 297 297 297 297 299 299 299 298 298 298 299 299 298 298 299 299 299 300 300 301 302 303 305 306 307 308 309 310 312 313 314 314 315 315 315 315 315 316 316 315
316 317 317 317 317 316 315 314 313 312 311 310 310 309 309 309 310 310 309 307 306 306 305 304 303 302 302 301 300 299 298 298 297 297 296 296 296 296 297 298 298 298 297 297 298 299 298 298 298 298 299 299 299 299 299 300 300 302 304 305 306 307 309 310 311 313 314 315 315 315 316 316 316 315
317 317 317 318 317 316 315 313 312 310 310 309 309 309 309 308 309 309 308 307 305 305 305 304 303 302 302 302 300 299 298 298 297 297 296 295 295 295 295 296 296 297 297 296 297 298 298 297 297 298 298 298 298 298 298 298 299 299 300 301 302 303 305 307 308 309 311 312 313 314 315 316 316 316
318 318 318 318 317 315 314 313 311 310 309 309 310 309 308 308 308 308 307 306 305 305 305 304 303 302 301 301 300 299 298 298 297 296 296 295 295 295 295 295 296 296 296 295 296 297 298 297 297 297 298 298 297 297 297 298 298 299 299 299 299 299 301 302 304 305 307 308 309 311 312 313 314 314
316 318 318 318 317 315 312 311 311 310 309 309 310 308 307 307 307 307 307 306 305 305 304 304 302 301 301 300 300 299 298 298 297 296 296 295 295 295 295 294 295 295 295 295 295 296 298 297 296 297 297 297 297 297 297 298 298 298 298 299 299 298 299 300 300 301 302 304 305 307 308 310 311 311
313 316 317 317 316 314 312 311 310 309 308 309 309 307 306 306 305 306 305 305 305 305 304 303 302 301 300 300 299 299 299 298 297 296 296 295 295 294 294 295 295 295 295 295 294 295 297 297 296 296 297 297 297 297 297 297 298 298 299 299 299 299 298 299 299 300 301 302 302 303 305 306 308 309
311 314 316 315 314 313 312 311 309 307 308 309 308 306 305 305 305 305 305 305 305 304 303 302 301 300 300 300 299 299 298 298 297 296 295 294 294 294 294 294 295 295 295 295 294 294 295 295 295 295 296 296 296 296 296 297 298 298 299 300 300 301 300 300 301 301 302 302 303 303 303 304 305 306
308 312 314 314 313 313 312 310 308 307 309 309 307 305 304 304 305 305 305 304 303 302 302 301 301 300 300 299 299 299 298 297 296 295 294 294 294 294 294 294 294 295 295 295 294 294 294 294 294 295 295 295 295 295 295 296 296 298 298 299 300 301 301 301 301 302 303 303 304 304 304 305 306 306
308 310 312 312 312 311 310 308 307 308 308 307 305 304 304 305 305 304 303 303 302 301 301 301 300 300 299 299 298 298 297 295 294 294 294 294 294 294 293 293 293 293 294 294 294 294 293 294 293 294 294 294 294 295 295 295 298 299 299 299 299 300 300 300 300 301 302 303 303 303 304 305 306 307
309 309 310 310 310 309 308 307 307 307 307 305 305 304 305 305 305 303 302 302 301 301 301 300 300 299 298 297 296 295 295 294 294 294 294 293 293 293 293 292 292 293 293 293 293 293 293 293 293 293 293 294 294 294 294 295 298 300 299 298 298 298 298 298 299 299 301 302 302 303 303 304 304 305
309 308 308 308 307 307 307 307 306 306 305 305 304 304 305 304 303 302 302 301 301 300 300 299 298 297 296 295 294 294 294 294 294 294 293 293 292 292 292 292 292 291 292 292 292 292 292 292 292 292 292 293 293 293 293 294 295 296 296 296 297 297 297 297 297 298 299 300 300 301 301 302 303 303
307 308 307 307 307 306 306 306 306 305 305 304 304 303 303 302 301 300 300 300 299 298 297 296 295 295 294 294 294 294 294 294 294 293 292 292 291 291 291 291 291 291 291 291 291 291 292 292 292 292 292 292 293 293 293 293 293 294 295 295 295 295 296 296 297 297 298 298 299 299 299 300 301 302
305 306 306 306 306 306 305 305 305 304 303 303 302 302 301 300 299 299 298 297 296 296 295 295 294 294 294 294 294 294 294 293 293 292 292 291 291 291 291 291 291 291 291 291 291 291 291 292 292 292 292 292 293 293 293 293 293 293 294 294 294 294 295 296 297 298 297 297 297 297 298 299 300 300
304 304 304 304 304 304 304 304 304 303 303 302 301 300 299 298 297 296 296 295 295 295 295 294 294 294 294 294 294 293 293 292 292 291 291 291 291 290 290 290 290 290 290 290 291 291 291 291 291 292 292 292 293 293 293 293 293 293 293 293 294 294 295 296 297 297 296 296 296 296 296 297 298 299
304 303 303 303 302 302 302 303 302 301 300 299 298 297 296 295 295 295 295 295 294 294 294 294 294 293 293 293 292 292 292 291 291 291 291 291 291 290 290 290 290 290 290 290 290 290 291 291 291 291 291 292 293 293 293 293 293 293 293 294 294 294 295 296 296 296 296 296 296 296 296 296 297 297
303 302 302 301 300 300 299 299 298 297 296 296 295 295 295 295 294 294 294 294 294 293 293 293 293 292 292 292 291 291 291 291 291 291 292 292 291 291 290 290 290 290 290 290 290 290 290 290 290 291 291 291 292 292 293 293 294 294 294 294 294 295 295 295 295 296 296 296 296 296 296 296 296 297
301 299 298 298 297 296 295 295 295 295 295 295 294 294 294 294 294 293 293 293 293 293 292 292 291 291 291 291 291 291 291 291 291 291 292 291 291 291 291 291 290 290 290 290 290 290 290 290 290 290 290 291 291 292 292 293 294 294 295 295 295 295 295 295 295 295 295 296 296 296 297 296 297 297
297 296 295 295 294 294 294 294 294 294 294 294 293 293 293 293 293 293 292 292 292 291 291 291 291 291 291 291 291 291 291 291 291 291 291 291 291 291 291 291 290 290 290 290 290 290 290 290 290 290 290 290 291 292 293 293 294 294 295 295 295 295 295 295 295 296 296 296 297 297 297 297 297 297
295 295 294 294 294 294 294 294 293 293 293 293 293 293 293 292 292 292 291 291 291 291 291 291 291 291 291 291 291 290 290 290 290 290 290 290 290 291 290 290 290 290 290 290 290 290 289 289 289 289 290 290 291 291 292 293 293 294 294 295 295 295 295 295 295 296 296 296 296 296 296 296 296 296
295 295 294 294 294 294 293 293 293 293 293 293 293 293 292 292 292 292 292 291 291 291 291 291 291 290 290 290 290 290 290 290 290 290 290 290 290 290 289 289 289 290 290 290 290 290 290 289 289 290 290 290 290 291 291 292 293 293 294 294 295 295 295 295 295 295 295 295 295 295 295 295 296 296
294 294 294 294 294 294 293 293 293 293 293 293 293 293 293 293 293 293 292 292 292 291 291 290 290 290 289 289 290 290 290 290 290 290 289 289 289 289 289 289 289 289 289 289 289 290 290 290 290 290 290 290 290 291 291 291 292 293 294 294 294 295 295 295 295 295 294 294 295 295 295 296 296 296
294 294 294 294 293 293 293 293 293 293 293 293 294 294 294 293 293 293 292 292 291 291 290 290 290 290 290 290 290 290 290 290 290 290 290 290 290 289 289 289 289 289 289 288 289 289 289 289 290 290 290 290 291 291 292 292 292 293 293 294 294 294 294 294 294 294 295 295 295 295 296 296 296 296
294 294 294 293 293 293 293 293 293 293 294 294 294 294 294 293 293 292 292 292 291 290 290 290 290 290 290 290 290 290 290 290 290 290 290 290 290 289 289 289 289 289 289 288 288 289 289 289 289 290 290 290 291 291 292 292 292 293 293 293 293 293 294 294 295 295 296 296 296 296 296 297 297 296
294 294 293 293 293 292 293 293 293 294 294 294 294 293 293 293 293 292 292 291 290 290 290 290 290 290 290 290 290 290 290 290 290 290 290 290 290 289 289 289 289 289 289 289 289 289 289 289 289 289 290 290 290 291 291 292 292 292 293 293 293 294 294 295 295 295 296 296 296 296 296 296 296 296
294 293 292 292 293 293 293 294 294 294 294 293 293 293 292 292 292 292 291 291 290 290 290 290 290 290 290 290 290 290 290 290 290 290 290 290 290 290 289 289 290 290 290 289 290 290 289 289 289 289 290 290 290 291 291 291 292 292 293 293 294 295 295 295 295 295 296 296 296 296 296 296 296 296
293 292 292 293 293 293 294 294 294 294 293 293 292 292 292 292 292 291 291 291 290 290 290 290 290 290 290 290 290 290 290 290 290 290 290 290 290 290 290 290 290 290 290 290 290 290 290 290 290 290 290 290 290 290 291 291 291 292 292 293 293 294 295 295 295 295 296 296 296 296 296 296 296 296
292 292 292 293 293 294 294 294 293 293 293 292 292 291 291 291 291 291 291 291 290 290 290 290 290 290 290 290 290 290 290 290 290 290 290 290 290 290 290 290 291 291 290 291 291 291 291 291 291 290 290 290 290 291 291 291 291 292 292 292 293 293 294 295 295 295 295 296 296 296 296 296 297 297
291 292 292 293 293 294 294 293 293 292 292 291 291 290 290 290 290 291 291 291 290 290 290 290 290 290 290 290 290 290 290 290 291 291 291 291 291 291 291 291 291 291 291 292 292 292 292 292 291 291 290 290 290 291 291 291 292 292 292 293 293 294 294 295 295 295 295 296 296 296 296 296 296 296
291 292 293 293 293 293 293 293 292 292 291 291 291 290 290 290 290 290 291 291 291 290 290 290 290 290 290 290 291 290 291 291 291 291 291 291 291 291 291 292 292 292 293 293 293 293 293 292 292 291 291 291 291 291 291 291 292 292 292 293 294 294 295 295 295 295 296 296 296 296 296 296 295 295
292 293 293 293 293 293 293 292 292 291 292 291 291 290 289 289 290 290 291 291 291 290 290 290 290 290 290 291 291 291 291 291 291 291 291 292 292 292 292 292 293 293 293 294 294 294 293 292 292 291 291 291 291 291 291 292 292 292 293 293 294 294 295 295 295 296 296 296 296 295 295 295 295 295
292 293 293 293 293 292 292 291 292 292 292 291 290 289 288 288 290 291 291 291 290 290 290 290 290 290 291 291 291 291 291 291 291 291 292 292 292 292 292 293 293 294 294 294 294 294 294 293 292 292 292 292 292 292 292 292 292 293 293 294 294 295 295 295 296 296 296 296 296 295 295 294 295 295
293 293 293 292 292 291 291 291 292 292 292 291 290 289 288 288 290 291 291 290 290 290 290 290 290 290 291 291 290 291 291 291 291 292 292 292 292 292 293 293 293 294 295 295 295 294 294 293 293 293 292 293 293 293 293 293 293 293 294 294 294 295 295 295 295 296 296 295 295 295 294 294 294 294
Wind_Speed
7 6 6 6 6 7 8 9 10 10 11 12 11 11 12 12 12 11 11 9 8 10 11 10 11 11 12 12 11 11 11 11 11 10 10 10 11 11 11 12 12 12 13 13 12 12 12 12 12 11 12 12 12 13 15 15 14 13 14 14 14 14 14 15 16 16 17 18 21 25 28 31 32 30
7 6 6 6 6 8 9 10 10 10 10 11 11 12 13 13 14 14 14 13 12 12 13 14 15 14 14 14 13 12 12 12 12 12 13 13 14 15 15 15 15 15 15 15 14 14 14 15 15 15 15 15 15 16 17 17 16 15 14 14 13 13 13 14 15 16 17 18 19 20 23 30 31 27
5 5 5 5 5 6 7 8 8 8 9 10 10 11 12 13 14 14 15 15 15 15 14 15 16 16 16 16 14 13 12 11 11 11 11 11 12 13 13 14 14 14 14 14 15 15 15 15 15 16 16 16 17 17 17 17 16 16 15 14 14 13 13 12 13 14 16 18 19 19 20 23 25 25
2 2 2 3 3 4 4 5 6 6 6 7 8 9 10 11 12 13 15 15 15 15 16 16 16 16 16 16 15 13 12 11 9 9 9 9 8 8 8 8 9 9 9 10 10 11 12 13 14 15 16 17 18 18 19 19 18 17 16 16 16 15 14 12 12 12 15 17 18 19 19 18 18 19
0 1 1 1 1 1 1 2 3 3 4 4 5 6 7 9 10 11 13 15 15 14 15 16 16 16 16 15 15 14 13 12 11 10 10 8 7 6 6 5 4 5 6 6 7 7 7 8 9 10 11 13 15 16 18 20 20 20 19 18 17 17 16 14 13 13 14 16 17 18 18 17 17 17
2 2 3 4 4 3 4 4 3 3 4 3 3 4 6 7 9 11 12 14 15 15 15 16 16 17 16 16 16 15 15 15 14 13 12 10 8 7 6 6 4 4 5 6 6 6 7 7 8 9 10 10 11 13 15 17 19 20 20 19 18 18 17 16 15 14 15 16 17 18 18 18 18 18
2 2 4 5 5 5 6 6 5 5 5 5 4 4 6 7 8 10 12 14 16 17 16 17 18 18 18 18 17 17 16 16 16 15 14 13 12 10 9 8 6 5 5 6 6 7 8 8 9 10 11 12 12 12 13 14 15 17 18 19 19 19 18 17 16 14 14 15 16 17 19 19 18 18
1 2 3 5 6 7 7 7 7 7 7 7 6 6 6 7 8 10 12 13 15 17 18 18 19 19 19 19 18 18 17 16 16 16 16 15 14 13 12 12 11 9 8 8 8 9 9 10 11 12 13 14 15 14 13 13 14 15 16 17 18 18 18 17 15 13 11 12 13 15 17 18 19 19
3 3 3 4 6 7 8 8 9 9 9 8 8 8 8 8 9 10 12 13 14 16 18 18 18 19 19 18 18 19 18 18 17 17 16 17 17 16 15 14 15 14 14 13 13 13 13 13 14 15 16 16 16 16 15 14 14 14 15 16 17 17 16 16 14 12 10 9 10 12 14 16 17 18
6 6 6 7 8 8 8 8 9 9 10 10 10 10 10 10 10 11 12 13 14 15 17 17 18 18 18 19 19 19 20 21 21 20 19 18 18 19 18 17 17 18 18 19 19 18 18 18 18 19 19 18 17 16 16 16 14 14 15 16 17 17 18 17 17 15 14 12 11 12 13 14 15 16
10 9 9 10 11 11 10 10 10 10 10 10 11 11 11 11 11 13 14 14 15 15 16 16 17 18 18 19 19 19 20 20 20 22 23 22 21 21 22 22 21 21 21 21 21 22 22 22 22 22 20 19 18 18 17 17 16 14 14 15 16 18 19 19 20 19 18 17 15 14 13 14 14 14
15 13 13 13 14 14 14 13 12 12 11 11 12 11 11 11 12 14 15 16 15 15 15 16 17 17 18 19 19 19 20 20 20 22 25 26 26 25 25 26 25 25 25 24 23 23 24 24 24 23 22 21 20 20 20 20 19 17 15 14 14 16 17 18 21 22 22 21 19 18 17 16 15 13
17 16 16 16 17 18 17 16 15 14 13 13 13 13 12 12 13 15 17 17 16 16 16 16 17 18 18 19 20 20 21 23 24 25 27 27 28 28 28 27 27 26 27 27 26 25 25 26 25 25 24 24 23 23 24 24 23 21 19 16 15 15 15 16 19 21 23 24 24 23 22 21 18 14
19 19 18 18 20 21 21 19 18 17 16 15 15 15 14 13 14 17 18 18 18 18 17 18 18 19 19 19 21 22 23 24 25 27 28 29 30 31 30 29 28 28 28 30 29 27 26 27 27 26 26 26 26 26 28 28 27 26 24 22 19 17 16 16 17 19 21 23 24 24 24 24 21 18
20 20 20 20 21 23 24 23 21 20 18 17 17 16 15 15 15 17 19 19 19 19 19 20 20 21 22 21 22 24 25 26 27 29 30 31 32 33 34 34 32 30 32 34 34 31 29 29 29 27 27 26 26 27 29 30 30 30 29 28 26 23 21 19 18 18 19 20 22 23 23 23 22 21
22 21 20 21 22 25 26 25 23 21 18 17 18 18 17 16 16 18 20 20 20 20 21 21 21 22 24 25 25 27 28 29 31 32 33 34 35 36 37 38 37 34 34 37 38 35 32 31 31 30 27 27 26 26 27 28 29 30 31 31 30 29 27 24 22 21 20 19 20 21 22 22 22 22
22 21 20 20 21 24 26 25 24 24 22 19 19 19 17 17 18 20 21 22 22 23 23 23 23 24 25 26 27 29 31 32 34 36 36 37 38 39 39 40 40 38 38 40 40 38 34 33 35 33 29 28 28 27 27 26 27 28 28 29 29 29 29 28 27 25 24 23 22 22 22 22 23 24
21 20 18 18 20 22 24 24 24 25 22 18 18 18 18 18 20 21 22 24 25 25 25 25 24 25 27 28 28 30 32 33 35 37 38 40 41 42 43 43 42 40 40 40 40 39 36 34 36 36 32 30 29 27 25 24 24 25 25 26 25 25 26 27 27 27 27 26 25 25 24 24 23 24
19 17 15 16 19 20 22 23 23 24 21 17 16 18 19 19 20 21 23 25 26 26 26 25 25 26 28 29 30 31 33 34 35 36 39 41 42 43 44 43 41 38 37 36 36 39 37 35 36 35 31 28 27 23 21 21 21 20 21 22 22 21 22 23 24 25 25 26 26 26 27 27 26 25
16 15 13 14 17 19 21 23 23 24 22 18 17 19 19 19 21 23 24 26 26 26 26 26 26 27 28 30 31 32 33 35 37 38 40 41 41 42 42 41 39 37 36 34 34 36 35 32 30 29 26 25 25 23 20 18 18 18 17 17 16 16 16 17 19 21 22 23 24 25 25 26 26 26
13 12 12 14 16 18 20 21 23 23 22 20 19 19 19 20 22 24 26 26 26 26 26 27 28 28 29 31 32 33 34 36 38 40 40 39 38 38 38 38 38 36 35 33 31 31 30 27 26 27 26 26 26 25 21 18 18 18 16 14 12 12 12 13 14 15 17 18 19 20 20 20 20 21
12 11 11 13 14 16 18 21 22 22 22 21 20 20 22 23 24 25 26 25 25 26 28 28 29 29 30 31 32 33 35 36 36 37 37 36 34 34 34 35 36 36 34 30 28 28 29 27 26 27 28 28 26 23 19 14 13 14 14 13 12 11 12 13 13 14 15 15 16 16 16 16 17 17
11 11 12 13 14 16 18 19 19 20 20 20 21 23 24 24 25 25 25 26 27 28 29 30 30 31 31 33 34 34 34 34 34 34 34 33 31 31 32 31 31 32 31 27 26 28 29 28 26 24 26 29 28 23 16 12 11 13 14 16 16 15 15 16 15 15 16 16 17 17 16 16 16 17
11 12 13 14 15 16 17 18 18 19 21 22 23 24 25 25 26 26 26 27 29 30 31 32 33 33 33 34 33 33 33 34 34 33 32 30 28 28 29 29 27 29 30 26 23 26 28 27 26 23 22 26 29 27 23 19 17 17 19 20 21 21 21 21 20 20 20 20 20 20 19 19 18 19
11 13 14 16 17 18 18 19 20 21 21 22 23 24 25 25 25 25 26 28 29 31 32 33 33 33 33 33 33 33 34 34 33 31 29 27 26 26 26 27 27 29 30 26 22 23 26 27 27 26 24 25 27 29 28 25 22 20 20 20 21 22 23 23 22 22 22 22 22 22 21 21 22 22
12 13 14 16 17 18 19 19 20 20 21 22 23 24 24 25 25 26 28 30 31 31 32 32 33 33 33 34 34 35 35 33 31 30 28 26 26 25 25 25 27 30 31 27 22 23 26 27 27 27 27 28 28 29 30 29 26 23 22 22 22 21 19 18 20 21 23 24 25 24 24 23 23 24
13 13 13 14 15 16 17 18 19 21 22 23 24 25 25 26 27 28 29 29 30 31 31 32 33 34 35 36 36 36 35 33 31 30 29 28 27 27 26 26 27 29 30 28 25 24 26 28 28 27 28 29 30 31 32 31 29 27 26 25 23 20 17 16 19 21 22 22 23 24 24 25 25 26
14 13 13 14 15 16 17 18 20 21 22 23 23 24 25 25 26 27 27 28 29 31 32 33 34 34 35 35 35 35 34 33 32 31 31 30 29 29 29 28 29 29 29 28 27 26 27 29 30 29 29 29 30 32 33 32 31 29 28 26 24 21 19 18 19 20 19 19 19 19 19 20 21 24
14 14 14 15 16 17 18 19 20 21 21 21 21 22 22 23 24 25 26 28 29 30 31 32 33 34 34 33 34 34 34 34 34 34 33 33 32 31 31 31 30 30 30 29 29 28 28 29 30 30 30 31 31 32 32 32 32 30 29 28 26 23 21 20 20 20 19 19 19 18 17 16 16 17
14 14 15 16 17 18 18 18 18 19 19 20 20 20 21 22 23 25 26 28 29 30 30 31 32 32 33 34 34 35 36 36 36 35 35 35 33 32 32 33 33 32 30 30 30 29 29 29 29 29 30 31 31 31 31 32 33 31 29 28 28 26 24 22 20 20 20 20 19 19 19 18 16 15
13 13 14 15 15 15 16 16 17 18 18 19 19 20 22 23 25 26 26 27 27 27 28 30 32 33 34 35 36 36 36 35 34 32 32 32 32 31 31 33 34 33 31 30 29 29 29 29 28 28 28 29 30 31 31 31 32 31 30 29 28 27 24 22 22 22 21 20 20 20 20 20 19 17
13 13 13 13 13 14 15 15 16 17 18 19 20 22 23 23 23 24 24 24 25 26 28 31 33 34 34 34 33 32 31 30 29 28 28 29 29 29 28 30 32 32 32 31 29 28 27 26 26 26 27 28 29 30 30 31 32 31 30 29 28 27 25 24 24 24 22 21 22 22 23 23 22 20
12 12 12 12 12 13 14 15 16 18 19 20 21 21 21 21 21 22 23 24 25 27 28 30 30 30 30 29 28 28 29 29 28 27 28 28 29 29 29 30 31 31 32 32 31 28 25 23 23 23 24 25 26 27 27 29 32 31 29 28 28 27 27 26 25 24 24 25 27 26 26 25 22 20
11 11 11 11 12 14 15 16 18 19 19 19 19 19 20 21 22 23 24 25 26 26 26 27 26 26 27 27 28 29 30 31 31 30 30 30 30 30 29 29 30 30 30 31 31 29 26 24 22 22 22 23 24 24 24 27 30 31 30 29 28 27 27 26 25 26 26 26 26 25 24 22 19 17
10 11 11 12 13 14 16 17 17 17 17 17 18 19 20 21 22 23 23 24 24 24 24 24 25 25 27 28 29 30 31 32 32 32 31 30 30 30 29 29 29 29 29 30 31 30 28 26 24 23 23 22 22 23 23 24 26 29 30 30 30 29 28 27 26 25 24 23 21 20 19 18 15 14
10 11 12 13 14 15 15 15 14 15 15 17 18 20 20 21 21 22 23 23 23 23 23 24 25 26 27 28 28 29 30 30 31 30 30 29 29 29 28 29 29 30 30 30 30 29 28 26 24 23 22 21 22 23 22 20 19 21 23 23 23 24 25 24 21 19 18 16 15 15 16 15 13 12
10 11 12 13 13 14 13 13 13 14 15 17 17 18 19 21 22 22 23 23 23 23 23 24 25 26 26 26 27 27 27 28 28 29 29 28 27 27 28 28 29 29 29 29 29 27 26 25 23 21 20 20 22 24 24 20 17 15 16 16 16 16 16 16 15 14 14 12 12 12 13 13 12 10
11 12 12 12 12 11 11 11 12 13 14 15 16 18 20 21 23 23 23 24 23 23 24 24 24 24 24 25 25 26 26 26 27 27 27 27 26 26 27 27 28 28 28 28 27 25 24 23 22 21 20 21 22 23 23 21 17 14 13 13 13 12 11 10 11 11 11 11 11 10 10 11 11 10
11 11 11 10 10 9 10 10 11 12 13 14 16 18 20 21 22 23 23 23 23 23 23 23 23 23 24 24 24 25 26 26 26 27 26 26 25 25 25 26 26 27 27 27 26 24 23 23 22 21 21 22 23 23 22 21 19 17 16 16 15 13 12 11 11 11 11 10 10 10 10 11 11 11
10 9 9 8 8 8 9 9 10 10 12 14 16 18 19 21 22 22 22 23 23 24 23 22 23 24 24 24 23 24 25 25 25 25 25 24 24 24 24 24 25 25 25 26 25 24 23 22 20 19 19 20 20 19 19 20 20 19 18 17 16 16 15 14 14 14 12 11 10 10 10 12 13 13
7 7 7 6 7 7 7 8 9 10 12 14 16 18 20 21 22 22 22 22 23 24 23 23 24 24 24 23 23 23 24 25 24 24 24 24 24 23 23 23 23 23 24 25 25 24 22 19 17 15 15 15 15 15 17 20 20 19 16 14 14 15 15 14 13 13 12 11 11 11 11 13 13 13
5 6 6 5 6 7 7 8 9 11 13 15 17 19 21 23 23 22 22 23 24 24 24 24 24 24 23 22 22 22 23 24 24 23 23 23 24 23 23 22 22 22 23 25 25 23 20 17 14 13 13 13 13 15 17 19 19 18 16 13 13 12 12 11 10 10 11 10 9 9 10 12 12 12
4 4 4 5 6 6 7 8 10 12 15 17 18 20 22 24 23 23 23 24 25 26 26 26 25 23 22 22 21 22 22 23 23 23 23 23 23 23 22 21 20 21 22 23 23 21 17 14 12 11 11 12 13 15 16 16 15 15 13 11 10 9 8 7 7 8 10 9 6 3 4 7 8 8
2 2 3 4 5 6 7 9 12 15 16 17 19 21 22 23 24 24 24 25 26 27 27 26 25 24 23 22 22 22 22 22 22 22 23 22 21 20 20 20 19 19 20 21 20 17 14 11 8 8 10 11 13 13 14 14 13 12 11 9 8 7 5 4 4 5 8 9 7 3 1 3 4 3
2 2 2 3 5 6 8 11 14 16 17 17 19 21 22 23 23 24 24 25 26 26 27 26 26 25 23 22 22 22 21 21 21 21 21 21 20 20 19 19 18 18 17 16 15 14 11 8 6 7 8 9 10 10 11 12 11 10 9 8 7 6 5 3 2 3 7 9 7 3 2 3 2 2
Wind_Direction
83 80 72 64 61 59 53 45 39 36 31 29 33 36 36 37 38 37 34 33 28 16 8 1 358 357 353 348 341 332 323 316 310 303 295 286 282 282 280 279 278 276 278 280 281 283 285 288 288 287 287 289 292 295 294 291 288 285 284 283 283 283 282 279 276 275 273 269 263 257 256 257 258 264
78 73 69 66 62 58 55 47 40 34 29 27 28 28 29 30 29 27 26 26 21 17 15 7 359 357 356 352 347 341 331 320 313 305 296 288 282 280 279 279 279 277 276 276 276 278 281 284 285 285 286 288 292 294 292 288 286 285 284 282 283 283 281 281 280 280 278 277 279 274 264 259 259 267
78 68 66 63 57 54 54 50 41 31 23 22 23 22 23 25 25 21 18 17 15 11 10 7 358 353 354 351 346 346 343 334 326 317 310 304 296 290 287 286 285 284 284 283 281 280 279 278 279 280 281 282 285 286 283 280 281 283 284 282 283 284 285 285 282 281 279 277 281 283 278 270 266 268
82 66 53 52 49 47 48 49 43 30 20 18 21 19 18 20 19 15 10 7 9 8 2 1 357 351 350 347 341 341 344 343 340 336 330 324 318 311 307 303 298 296 298 297 295 291 286 283 282 282 283 282 281 279 277 275 274 277 281 282 282 284 285 287 287 286 283 280 280 282 283 282 276 271
258 324 322 317 319 322 350 15 20 15 9 11 17 13 12 15 12 9 5 359 1 5 358 353 351 347 345 343 337 333 333 334 337 340 338 334 334 337 336 330 321 322 328 326 324 320 312 305 299 296 294 293 290 287 284 281 279 277 276 278 280 282 282 283 287 290 290 288 285 283 282 282 279 275
251 284 302 305 298 286 285 294 305 325 335 339 349 354 357 3 2 359 358 352 350 353 353 348 345 343 342 340 334 331 331 330 330 330 329 329 334 339 343 342 339 339 344 342 338 336 330 324 319 313 309 305 301 298 294 291 288 283 277 275 277 279 279 278 279 285 290 292 291 287 284 281 278 275
233 284 305 310 308 296 288 291 295 304 313 316 317 327 337 343 347 349 349 346 341 340 343 342 338 337 339 337 333 331 329 327 323 322 322 323 324 322 322 326 323 318 322 326 321 317 316 315 316 315 311 308 303 301 300 296 292 288 281 278 276 275 275 274 273 275 281 289 290 288 284 279 277 273
226 272 298 306 307 302 296 297 302 306 308 309 307 306 313 323 333 338 340 339 334 330 332 334 333 332 333 333 330 326 324 322 320 319 319 319 317 315 315 316 313 306 300 299 296 297 299 299 300 303 305 305 301 297 298 295 291 286 280 278 278 276 274 272 269 268 274 283 286 288 286 279 275 272
254 270 287 296 297 298 298 296 298 304 305 302 300 298 301 310 321 328 330 331 329 325 323 325 326 326 326 328 327 324 323 322 321 320 321 322 320 317 314 310 307 304 299 295 290 288 289 290 290 293 298 301 298 292 290 289 289 286 279 275 273 273 273 270 267 268 272 283 289 291 291 284 275 270
272 279 285 288 290 293 295 289 287 293 297 295 293 295 297 302 309 316 321 322 322 320 318 319 320 321 322 323 324 325 327 327 325 323 322 322 321 319 316 313 310 306 303 300 297 294 293 293 293 293 295 295 292 288 285 283 283 284 280 275 270 269 270 269 267 267 268 273 282 289 295 293 280 268
277 284 287 287 288 290 290 286 283 286 290 291 291 291 294 298 303 311 317 318 317 316 316 315 316 318 320 321 321 323 325 325 323 323 323 322 322 323 323 321 318 314 309 303 298 295 294 293 292 293 293 291 285 282 283 282 280 279 278 276 273 272 271 269 266 264 265 267 272 278 289 298 292 273
272 278 284 285 285 287 287 283 279 280 284 288 289 290 295 299 302 310 315 316 316 316 315 314 313 314 315 315 316 317 319 320 322 326 329 326 324 323 322 322 320 318 314 309 303 299 296 293 291 290 289 286 282 279 279 280 279 277 276 274 273 272 271 270 267 263 263 264 267 272 279 290 293 281
274 276 281 283 284 285 284 282 279 278 280 285 287 289 295 299 303 310 314 315 317 317 315 312 309 308 310 313 316 319 324 327 328 328 328 325 322 319 317 317 318 318 315 311 307 305 303 300 296 293 289 286 283 280 278 278 277 275 273 271 270 271 270 269 269 265 262 262 263 267 273 279 283 281
279 278 280 282 282 281 279 278 278 276 277 280 283 287 291 295 303 312 314 314 317 317 315 313 309 308 310 316 321 324 326 328 328 327 325 324 323 320 317 315 316 318 318 313 307 305 308 306 300 295 292 288 284 282 280 279 278 276 273 270 269 269 268 266 267 266 263 262 262 264 269 272 272 272
283 281 281 279 277 275 273 273 274 273 272 274 278 283 286 289 300 311 312 313 315 315 314 312 313 315 317 319 321 322 323 324 326 326 325 324 323 323 322 319 317 319 320 317 311 308 309 311 305 299 295 292 289 286 283 281 280 278 275 273 271 268 268 266 265 265 263 262 262 262 264 265 264 264
283 282 281 279 275 270 268 269 269 263 259 262 273 279 281 285 298 308 310 311 312 312 311 311 313 317 318 319 320 321 322 323 324 325 324 324 323 322 322 320 318 319 320 318 314 309 309 313 310 304 300 300 297 293 288 284 281 279 277 275 273 270 268 268 267 267 266 263 261 261 261 260 258 258
283 283 282 281 276 266 261 262 262 260 258 262 270 275 278 287 298 304 307 309 309 310 311 312 314 316 316 318 319 320 320 321 322 322 322 322 322 320 319 317 317 318 319 317 313 309 309 313 311 306 305 306 304 300 294 289 285 283 282 280 278 273 270 269 268 267 266 265 263 262 260 259 258 257
285 286 285 282 277 266 257 256 259 261 261 261 267 274 279 286 293 298 302 305 306 308 310 311 312 312 312 314 315 316 317 317 317 318 318 318 318 316 315 314 314 316 315 314 311 308 308 311 310 308 307 307 307 305 302 297 293 290 289 288 285 281 275 271 270 269 267 266 264 263 262 261 260 259
290 290 289 285 278 265 256 256 257 254 251 253 262 271 275 281 289 294 298 301 302 304 304 305 305 305 306 308 310 311 312 312 312 312 312 313 313 311 310 310 312 313 312 312 310 307 308 310 309 309 310 308 305 305 305 306 305 301 298 295 292 288 282 275 271 269 267 265 263 262 262 261 261 261
296 296 295 285 271 260 257 259 254 248 252 262 269 269 272 279 287 292 295 297 297 298 298 298 297 297 299 302 304 306 307 307 308 308 308 309 309 307 307 308 310 311 310 310 310 308 310 312 310 310 311 306 302 302 304 307 307 305 304 304 302 298 291 283 276 271 268 267 265 264 263 263 263 262
309 306 300 287 270 260 256 252 245 247 260 273 272 268 272 281 287 290 291 291 291 292 292 291 291 291 294 297 299 302 303 304 305 306 306 308 307 306 306 308 309 309 309 310 310 309 310 312 310 307 305 302 300 301 302 301 299 300 300 299 300 302 299 294 290 285 280 276 274 271 269 268 266 265
320 313 301 288 272 258 249 244 245 254 264 268 266 265 272 281 286 287 285 283 284 285 285 285 286 288 290 292 295 296 298 300 302 303 305 306 305 304 305 306 307 308 308 309 310 308 306 307 307 305 303 301 301 303 305 300 293 294 295 289 283 286 292 294 293 290 287 284 282 279 276 273 271 269
315 305 289 275 263 254 250 250 254 259 261 263 265 269 277 283 285 283 281 280 279 279 279 280 282 284 286 289 291 294 297 299 302 303 304 304 304 304 304 306 307 306 306 310 312 309 307 309 311 311 308 304 302 302 303 289 265 262 274 280 276 274 281 287 287 285 282 279 279 279 279 279 279 277
296 288 279 269 262 259 261 264 266 265 265 266 269 274 281 284 283 281 280 280 279 279 281 283 285 288 291 293 295 298 300 301 302 303 304 303 303 302 303 304 304 301 301 308 313 310 307 309 310 309 307 302 298 297 297 291 277 267 270 275 276 273 274 278 284 285 281 277 275 276 276 276 276 277
285 278 274 272 271 272 274 274 274 272 271 271 274 278 281 280 279 279 280 281 283 285 287 289 291 294 296 297 299 300 301 301 302 303 303 301 298 297 298 298 298 296 298 305 310 306 304 305 305 304 302 298 295 296 297 295 292 286 280 280 281 280 277 276 279 283 282 279 278 277 276 275 272 274
285 278 274 272 273 274 274 276 277 277 276 278 279 279 278 279 281 284 286 288 289 290 292 294 296 297 298 299 300 301 301 303 304 303 302 299 295 293 292 292 292 293 295 300 301 298 297 298 299 301 300 296 295 296 295 293 293 292 289 285 287 290 288 278 275 281 286 287 285 281 278 276 274 272
283 279 275 273 272 273 274 275 276 277 277 276 277 278 280 284 287 289 291 292 292 294 295 297 297 298 299 300 301 302 303 304 304 303 302 300 297 293 290 288 288 288 291 293 292 290 290 290 292 294 295 294 293 291 290 290 291 292 290 288 288 292 291 281 277 283 289 291 291 288 284 281 278 275
281 279 277 275 274 274 274 274 273 274 275 276 278 282 286 289 291 292 294 295 295 296 297 297 298 299 300 301 302 303 303 303 303 303 302 300 297 294 290 288 286 285 287 288 288 287 286 285 285 286 288 289 288 287 286 287 288 289 289 290 290 288 286 282 281 283 285 288 292 295 290 283 279 277
284 284 282 279 276 275 274 274 275 277 280 283 287 290 292 294 295 296 296 296 296 296 297 297 298 299 300 301 301 301 302 302 302 302 301 298 295 291 289 286 284 283 283 284 285 285 284 283 283 283 283 283 282 282 283 284 285 285 285 286 286 284 283 281 279 279 282 285 289 293 292 287 283 282
290 288 284 280 278 277 279 281 283 286 289 292 294 295 296 296 295 294 294 294 295 296 297 298 298 299 300 300 300 301 301 301 301 301 300 297 294 290 287 286 284 283 283 284 285 285 284 284 285 283 282 280 278 278 280 282 283 283 282 281 281 282 282 279 277 277 279 281 284 287 289 289 289 292
289 285 282 280 280 282 285 287 289 290 291 292 293 293 293 293 293 293 293 294 295 297 297 298 298 299 299 300 300 301 302 301 302 302 300 298 296 293 289 286 285 286 287 288 289 289 288 286 285 283 280 278 276 274 275 276 278 280 279 276 275 276 277 276 276 277 277 278 279 281 283 286 290 294
283 281 281 282 284 286 288 288 289 290 291 293 296 297 297 296 296 295 295 296 296 297 297 298 299 301 302 304 306 307 307 307 308 308 306 304 302 299 295 291 290 291 292 292 293 294 292 288 284 280 278 276 275 274 273 272 273 276 277 276 273 272 272 272 274 275 276 278 280 280 281 284 288 292
275 277 280 283 285 287 288 289 291 294 296 299 300 300 300 299 299 300 301 301 301 302 303 305 308 310 312 314 315 316 315 314 315 315 313 310 308 307 303 298 296 296 295 295 297 298 297 292 286 281 278 275 274 272 271 270 270 272 275 276 274 271 270 270 272 275 278 281 282 282 281 281 284 287
275 280 285 288 289 291 292 295 297 299 301 302 302 303 304 304 305 307 308 309 311 312 314 316 317 319 320 321 321 320 318 318 318 317 314 312 311 310 306 301 299 298 297 296 297 300 300 298 294 290 285 280 274 269 266 266 267 268 270 271 271 270 270 272 275 278 280 280 279 278 277 278 279 279
282 287 289 289 291 293 296 298 300 303 305 308 309 310 311 312 314 316 317 317 318 319 320 321 322 323 323 321 320 318 316 315 314 313 312 310 309 307 304 299 297 297 296 294 295 297 299 299 297 293 290 287 282 274 264 260 263 265 266 267 269 271 274 277 280 280 277 273 270 270 272 272 270 266
282 285 287 289 292 294 296 300 304 309 313 316 317 317 318 320 322 324 324 323 322 322 322 323 323 322 321 319 317 315 313 312 311 310 309 307 306 304 301 298 297 296 295 293 294 296 297 295 292 288 285 285 286 280 271 264 263 266 268 270 272 273 275 277 278 274 270 266 262 262 263 264 260 256
281 284 286 288 291 295 299 305 310 314 319 321 322 325 328 329 330 331 330 327 324 322 320 318 318 319 320 319 317 315 313 312 311 309 309 308 307 305 303 301 300 298 296 296 296 296 294 290 286 282 279 279 279 278 277 278 277 272 272 274 272 269 270 271 266 261 261 262 259 257 257 256 252 248
279 282 285 288 293 299 306 312 317 320 324 327 330 333 336 336 335 334 331 328 324 320 317 315 318 322 323 322 320 319 317 316 314 312 311 311 310 308 306 304 303 302 301 300 299 298 294 288 282 276 271 269 270 271 275 280 281 275 271 271 268 266 267 263 258 258 261 260 258 258 256 252 247 248
278 280 286 292 299 306 313 319 323 325 328 333 339 341 341 339 337 334 331 328 325 323 321 320 323 326 325 324 324 323 322 320 317 314 314 313 312 311 309 307 306 306 304 302 301 300 296 289 284 278 272 267 267 268 271 275 275 269 263 261 262 264 265 261 260 263 267 266 262 260 261 256 249 250
280 286 294 300 306 313 320 325 326 328 333 339 343 344 341 340 339 337 336 334 331 329 327 325 326 328 327 327 328 327 324 323 322 320 318 316 315 313 312 310 308 307 305 303 302 301 299 296 295 292 284 276 273 270 270 271 271 269 264 261 261 262 262 259 259 261 265 268 263 259 263 264 257 254
288 298 303 306 312 320 326 326 324 327 335 340 341 340 340 341 342 342 340 337 334 332 329 326 328 330 330 329 329 328 327 328 328 326 322 318 316 315 314 312 310 309 308 306 305 305 305 304 302 296 287 279 273 269 267 268 269 271 272 265 258 256 257 256 254 257 264 267 262 257 260 262 259 254
300 305 306 312 323 328 324 319 320 327 334 337 338 339 340 342 344 344 342 340 339 337 335 333 333 333 332 331 330 330 330 330 330 328 326 322 319 317 316 314 313 312 311 309 309 310 309 304 296 287 278 269 263 263 266 267 267 269 269 259 247 247 252 252 251 256 258 254 250 254 259 256 251 246
304 309 316 325 327 321 314 312 320 328 331 333 338 341 341 343 346 347 346 344 343 342 339 338 337 336 335 333 333 333 333 333 332 331 329 326 322 319 316 315 313 312 312 313 314 314 310 301 289 277 266 257 252 255 262 264 262 258 254 245 238 241 248 252 257 258 243 221 201 216 258 250 245 245
298 309 325 327 319 311 310 316 323 327 328 332 339 343 344 345 348 349 348 346 345 342 339 339 340 341 338 336 334 335 336 335 335 333 330 327 324 319 316 315 314 313 314 317 318 317 312 301 283 263 253 248 247 249 253 253 249 243 238 235 240 249 256 263 268 248 215 185 159 142 182 210 227 251
272 282 305 314 310 307 311 318 321 322 326 334 341 344 346 348 349 349 349 349 345 341 339 340 342 343 341 338 336 336 336 336 335 334 332 329 325 320 316 315 313 313 316 319 320 320 317 302 271 253 249 247 245 244 240 235 231 228 227 235 249 258 259 257 249 207 181 164 150 146 151 149 183 252